Waarnemingen

Advertentie
Mijn weer
Tortosa, Spanje (8238): temperatuur & dauwpunt: 15.11.2019 13:00:00 - 21.11.2019 13:00:00 (CET)Tortosa, Spanje (8238): windsnelheid: 15.11.2019 13:00:00 - 21.11.2019 13:00:00 (CET)Tortosa, Spanje (8238): windrichting: 15.11.2019 13:00:00 - 21.11.2019 13:00:00 (CET)Tortosa, Spanje (8238): luchtdruk: 15.11.2019 13:00:00 - 21.11.2019 13:00:00 (CET)Tortosa, Spanje (8238): zicht: 15.11.2019 13:00:00 - 21.11.2019 13:00:00 (CET)Tortosa, Spanje (8238): neerslag: 15.11.2019 13:00:00 - 21.11.2019 13:00:00 (CET)
Datum & Tijd tt [°C] td [°C] ff [km/u] ff [kn] dd ppp [hPa] vv [km] rr [mm]
21.11.2019 13:00:00 - - - - - - - -
21.11.2019 12:00:00 16,2 5,5 4 2 ZZO 1008,7 6 0,0
21.11.2019 11:00:00 13,0 6,8 4 2 O 1009,1 17 0,0
21.11.2019 10:00:00 8,6 5,9 4 2 WZW 1009,1 3,0 -
21.11.2019 09:00:00 7,3 5,1 4 2 N 1009,1 20 0,0
21.11.2019 08:00:00 6,4 4,7 9 5 NNW 1008,5 20 0,0
21.11.2019 07:00:00 7,1 4,9 8 4 NNW 1008,4 12 -
21.11.2019 06:00:00 6,5 5,1 8 4 NW 1008,0 19 0,0
21.11.2019 05:00:00 6,6 5,4 4 2 N 1008,0 17 0,0
21.11.2019 04:00:00 6,9 6,0 5 3 N 1008,1 9 -
21.11.2019 03:00:00 7,7 6,3 2 1 O 1008,2 16 0,0
21.11.2019 02:00:00 7,7 6,3 4 2 NNW 1008,1 17 0,0
21.11.2019 01:00:00 7,5 6,1 5 3 N 1008,7 7 -
21.11.2019 00:00:00 7,2 6,0 4 2 NNW 1009,1 6 0,0
20.11.2019 23:00:00 7,4 6,0 2 1 NNW 1009,5 4,7 0,0
20.11.2019 22:00:00 7,7 6,2 4 2 O 1009,6 8 -
20.11.2019 21:00:00 8,5 6,5 4 2 OZO 1009,8 9 0,0
20.11.2019 20:00:00 9,4 7,0 4 2 ZZO 1009,9 15 0,0
20.11.2019 19:00:00 10,5 7,2 9 5 ZW 1009,7 5 -
20.11.2019 18:00:00 11,9 7,2 4 2 ZZW 1009,5 20 0,0
20.11.2019 17:00:00 13,5 7,0 9 5 O 1009,4 20 0,0
20.11.2019 16:00:00 14,2 7,3 9 5 OZO 1009,7 5 -
20.11.2019 15:00:00 15,2 7,2 9 5 OZO 1009,9 20 0,0
20.11.2019 14:00:00 16,1 7,8 11 6 ZO 1010,7 20 0,0
20.11.2019 13:00:00 15,2 6,2 8 4 Z 1011,7 5 -
20.11.2019 12:00:00 12,2 5,4 2 1 NO 1012,9 17 0,0
20.11.2019 11:00:00 8,2 4,2 4 2 N 1013,6 20 0,0
20.11.2019 10:00:00 6,4 3,5 5 3 N 1014,0 5 -
20.11.2019 09:00:00 4,4 2,6 4 2 N 1014,0 20 0,0
20.11.2019 08:00:00 3,0 1,7 4 2 NW 1013,9 20 0,0
20.11.2019 07:00:00 2,9 1,6 4 2 N 1013,8 20 -
20.11.2019 06:00:00 3,1 1,6 8 4 NNW 1013,9 20 0,0
20.11.2019 05:00:00 2,7 1,4 4 2 N 1014,1 20 0,0
20.11.2019 04:00:00 3,1 1,5 4 2 N 1014,3 20 -
20.11.2019 03:00:00 3,3 1,7 5 3 NNW 1014,9 20 0,0
20.11.2019 02:00:00 3,4 1,6 4 2 NNW 1015,0 20 0,0
20.11.2019 01:00:00 3,6 1,6 4 2 N 1015,7 20 -
20.11.2019 00:00:00 4,4 1,8 4 2 N 1016,0 20 0,0
19.11.2019 23:00:00 5,3 2,3 5 3 N 1016,2 20 0,0
19.11.2019 22:00:00 6,4 2,5 5 3 NNW 1016,2 20 -
19.11.2019 21:00:00 7,5 2,8 8 4 NW 1016,0 20 0,0
19.11.2019 20:00:00 8,9 3,3 4 2 NO 1015,9 20 0,0
19.11.2019 19:00:00 10,0 3,3 4 2 O 1015,5 10 -
19.11.2019 18:00:00 11,1 3,1 9 5 Z 1015,4 20 0,0
19.11.2019 17:00:00 14,0 1,9 8 4 WNW 1015,0 20 0,0
19.11.2019 16:00:00 15,0 1,5 15 8 WNW 1014,9 8 -
19.11.2019 15:00:00 15,6 2,0 8 4 NW 1014,8 20 0,0
19.11.2019 14:00:00 15,1 1,9 11 6 WNW 1015,3 20 0,0
19.11.2019 13:00:00 14,7 1,6 13 7 WNW 1015,9 8 -
19.11.2019 12:00:00 14,1 1,7 13 7 WNW 1016,6 20 0,0
19.11.2019 11:00:00 13,0 1,0 24 13 W 1016,9 20 0,0
19.11.2019 10:00:00 12,0 1,0 21 11 WNW 1016,8 8 -
19.11.2019 09:00:00 10,7 1,0 18 10 NW 1016,4 20 0,0
19.11.2019 08:00:00 9,0 0,4 9 5 NW 1016,1 20 0,0
19.11.2019 07:00:00 9,0 0,6 8 4 WNW 1014,9 20 -
19.11.2019 06:00:00 - - - - - - - -
19.11.2019 05:00:00 - - - - - - - -
19.11.2019 04:00:00 - - - - - - - -
19.11.2019 03:00:00 - - - - - - - -
19.11.2019 02:00:00 - - - - - - - -
19.11.2019 01:00:00 9,3 -0,1 11 6 NW 1015,9 20 -
19.11.2019 00:00:00 9,7 -0,2 21 11 WNW 1015,7 20 0,0
18.11.2019 23:00:00 9,8 -0,4 18 10 NW 1015,8 20 0,0
18.11.2019 22:00:00 10,1 -0,1 28 15 WNW 1015,1 20 -
18.11.2019 21:00:00 10,2 -0,3 26 14 WNW 1014,7 20 0,0
18.11.2019 20:00:00 10,7 0,7 16 9 WNW 1014,3 20 0,0
18.11.2019 19:00:00 11,0 1,0 21 11 WNW 1013,7 8 -
18.11.2019 18:00:00 11,3 1,0 24 13 WNW 1012,8 20 0,0
18.11.2019 17:00:00 12,3 1,9 24 13 WNW 1012,3 20 0,0
18.11.2019 16:00:00 13,0 1,6 15 8 NW 1012,2 0,8 -
18.11.2019 15:00:00 14,3 2,8 13 7 NNW 1012,1 20 0,0
18.11.2019 14:00:00 13,7 2,6 18 10 NW 1011,9 20 0,0
18.11.2019 13:00:00 13,1 1,7 18 10 NW 1011,7 8 -
18.11.2019 12:00:00 12,2 2,1 18 10 NNW 1011,3 20 0,0
18.11.2019 11:00:00 11,6 2,1 18 10 NNW 1010,8 20 0,0
18.11.2019 10:00:00 11,5 3,3 16 9 NNW 1010,6 8 -
18.11.2019 09:00:00 11,3 3,6 16 9 NNW 1009,5 20 0,0
18.11.2019 08:00:00 10,1 3,8 11 6 NNW 1009,0 20 0,0
18.11.2019 07:00:00 10,1 4,7 11 6 N 1009,0 20 -
18.11.2019 06:00:00 9,3 5,5 9 5 N 1008,6 20 0,0
18.11.2019 05:00:00 8,8 6,1 11 6 N 1008,2 20 0,0
18.11.2019 04:00:00 8,8 6,1 8 4 N 1007,8 20 -
18.11.2019 03:00:00 9,8 6,0 11 6 NNW 1007,9 20 0,0
18.11.2019 02:00:00 10,8 6,2 8 4 NNW 1007,8 20 0,0
18.11.2019 01:00:00 11,1 6,6 8 4 NNO 1008,2 20 -
18.11.2019 00:00:00 11,0 6,7 4 2 Z 1008,4 20 0,0
17.11.2019 23:00:00 11,3 6,4 4 2 OZO 1008,5 20 0,0
17.11.2019 22:00:00 11,5 6,6 5 3 N 1008,9 20 -
17.11.2019 21:00:00 11,4 6,9 9 5 NNO 1008,8 20 0,0
17.11.2019 20:00:00 11,8 7,3 8 4 N 1009,1 20 0,0
17.11.2019 19:00:00 12,3 7,0 5 3 NNW 1009,4 10 -
17.11.2019 18:00:00 12,5 7,8 5 3 N 1009,2 20 0,0
17.11.2019 17:00:00 14,5 6,3 8 4 WZW 1008,9 20 0,0
17.11.2019 16:00:00 16,2 4,9 8 4 ZZO 1008,4 15 -
17.11.2019 15:00:00 16,9 4,2 8 4 Z 1009,0 20 0,0
17.11.2019 14:00:00 17,3 3,6 8 4 ZZO 1009,1 20 0,0
17.11.2019 13:00:00 15,1 3,9 8 4 NW 1009,8 8 -
17.11.2019 12:00:00 12,8 2,6 5 3 N 1010,7 20 0,0
17.11.2019 11:00:00 12,5 1,2 21 11 WNW 1010,6 20 0,0
17.11.2019 10:00:00 11,9 0,6 16 9 NW 1010,7 12 -
17.11.2019 09:00:00 11,2 0,0 18 10 WNW 1010,9 20 0,0
17.11.2019 08:00:00 10,6 -0,6 11 6 NW 1011,2 20 0,0
17.11.2019 07:00:00 10,6 -1,2 13 7 WNW 1010,6 20 -
17.11.2019 06:00:00 9,9 -0,9 11 6 NW 1010,6 20 0,0
17.11.2019 05:00:00 10,2 -1,2 8 4 NW 1011,2 20 0,0
17.11.2019 04:00:00 10,2 -0,9 9 5 NW 1011,4 20 -
17.11.2019 03:00:00 11,0 -0,8 13 7 NW 1011,4 20 0,0
17.11.2019 02:00:00 11,6 -0,3 22 12 WNW 1011,5 20 0,0
17.11.2019 01:00:00 11,7 0,4 16 9 NW 1011,8 20 -
17.11.2019 00:00:00 12,0 0,4 16 9 WNW 1011,8 20 0,0
16.11.2019 23:00:00 12,1 0,2 21 11 WNW 1012,1 20 0,0
16.11.2019 22:00:00 11,8 -0,4 16 9 WNW 1012,1 20 -
16.11.2019 21:00:00 10,8 0,5 9 5 NNW 1012,3 20 0,0
16.11.2019 20:00:00 11,3 0,1 15 8 NW 1012,4 20 0,0
16.11.2019 19:00:00 9,9 2,0 5 3 N 1012,2 20 -
16.11.2019 18:00:00 10,9 2,2 8 4 NNW 1012,3 20 0,0
16.11.2019 17:00:00 11,8 2,0 11 6 NNW 1012,0 20 0,0
16.11.2019 16:00:00 13,5 2,4 11 6 N 1011,7 10 -
16.11.2019 15:00:00 14,5 1,7 13 7 NNW 1011,4 20 0,0
16.11.2019 14:00:00 14,5 1,7 16 9 NNW 1011,7 20 0,0
16.11.2019 13:00:00 14,0 0,9 16 9 NW 1011,9 8 -
16.11.2019 12:00:00 13,5 2,4 11 6 NNW 1012,2 20 0,0
16.11.2019 11:00:00 11,7 1,3 16 9 NW 1012,5 20 0,0
16.11.2019 10:00:00 11,0 1,8 13 7 NNW 1012,1 8 -
16.11.2019 09:00:00 8,8 1,2 15 8 NNW 1011,6 20 0,0
16.11.2019 08:00:00 7,1 1,4 9 5 N 1011,2 20 0,0
16.11.2019 07:00:00 7,8 1,4 13 7 NNW 1010,1 20 -
16.11.2019 06:00:00 7,9 1,3 15 8 NNW 1009,2 20 0,0
16.11.2019 05:00:00 7,0 1,7 9 5 NNW 1008,8 20 0,0
16.11.2019 04:00:00 7,7 1,5 9 5 NNW 1008,5 20 -
16.11.2019 03:00:00 8,9 1,3 15 8 NNW 1007,5 20 0,0
16.11.2019 02:00:00 9,5 1,1 22 12 WNW 1006,7 20 0,0
16.11.2019 01:00:00 8,3 2,1 8 4 N 1006,8 20 -
16.11.2019 00:00:00 8,9 1,5 8 4 NW 1006,5 20 0,0
15.11.2019 23:00:00 10,0 1,6 11 6 WNW 1005,9 20 0,0
15.11.2019 22:00:00 10,4 1,2 15 8 WNW 1005,0 20 -
15.11.2019 21:00:00 9,7 2,3 8 4 N 1004,2 20 0,0
15.11.2019 20:00:00 8,9 4,1 11 6 N 1004,0 20 0,0
15.11.2019 19:00:00 10,1 2,9 5 3 WNW 1003,6 8 -
15.11.2019 18:00:00 10,7 3,7 15 8 WNW 1003,1 20 0,4
15.11.2019 17:00:00 12,5 5,9 8 4 N 1002,6 16 0,2
15.11.2019 16:00:00 13,9 2,8 4 2 O 1001,5 8 -
15.11.2019 15:00:00 14,9 2,7 4 2 OZO 1001,3 20 0,0
15.11.2019 14:00:00 13,5 3,3 4 2 NW 1001,3 20 0,0
15.11.2019 13:00:00 13,5 1,8 5 3 NW 1001,9 8 -

tt = temperatuur
td = dauwpunt
ff = windsnelheid
dd = windrichting
ppp = luchtdruk
vv = zicht
rr = neerslag

Weerstations in de omgeving